Vertical_Velocity
0 -2 -1 2 -3 -0 6 4 4 1 9 -7 8 1 11 2 -2 -6 5 1 -1 2 2 -1 1 -0 -1 1 -0 -2 -3 -1 -0 -0 -1 -1 0 -1 -1 0 -0 -1 0 -1 -3 -1 -2 -1 -3
-0 -3 -0 -3 1 5 4 2 2 -12 -3 2 5 2 -2 -2 4 -1 3 -1 -2 -0 0 0 1 0 0 -0 -1 -2 -2 -2 0 1 -1 0 -0 -1 -1 -1 -1 0 -1 0 -1 -0 -2 -1 -2
-2 -2 -4 -3 -1 6 2 2 -3 -3 -3 3 9 6 -12 -5 5 -1 3 6 0 1 1 -0 2 1 0 -1 -2 -3 -1 -2 -0 -2 -2 -2 -1 -2 -2 -0 -1 -1 -1 -1 0 -2 -3 -2 -1
-4 -4 -4 -2 3 6 -1 -5 -10 0 2 3 0 -3 -8 3 5 4 3 0 -1 2 0 1 1 -0 -1 -1 -1 -2 -1 0 -1 -2 -0 -1 -1 -0 -0 -1 -1 -1 1 -2 -0 -2 0 -1 -1
-1 -2 -4 -1 3 -2 -1 2 -4 2 -2 9 2 -3 -2 -1 -5 8 1 1 -1 2 1 0 1 -1 -1 -1 0 -0 -3 -0 -1 -1 -1 -2 -1 -1 -1 -1 -0 -2 -0 -2 -2 -3 -0 1 -0
-1 -5 -3 -2 8 8 4 -3 2 4 -8 5 -5 -5 3 5 -6 9 6 1 1 1 2 -1 -0 0 -0 -0 1 -0 -1 -0 -1 -3 -1 -0 0 -1 -1 -1 -1 -3 -1 -3 -1 -1 0 -1 -2
7 -6 4 -1 5 1 2 -3 3 3 15 -4 9 -13 -1 3 -0 -5 1 1 0 1 0 1 1 1 0 0 1 1 -0 0 0 -2 0 -1 0 -0 -1 -1 -1 0 -2 -2 -2 -1 -1 0 -1
4 -11 -5 3 3 9 -5 4 -5 1 3 0 -3 -2 -0 2 -2 -7 4 -2 -1 -1 1 1 -1 1 -1 1 0 1 1 -1 -1 -0 -1 -0 -0 -1 -0 -1 -2 -2 -2 -2 -2 -2 -0 -1 -1
6 -21 -6 7 2 2 -9 -6 -8 1 4 -3 -5 -4 -1 3 3 -1 4 -3 -1 -0 -1 1 1 0 -2 -1 0 1 0 1 -0 -0 -1 0 -1 -1 0 -2 -1 -1 -2 -3 -1 -1 -1 -1 -1
-17 -17 7 14 16 -9 -1 -11 -0 0 8 0 -4 1 -7 4 2 0 1 -1 -1 -1 -2 -1 0 -1 -1 1 0 0 0 2 0 -1 -0 -1 -0 -1 -0 -1 -1 -2 -1 -1 -2 -2 -2 -1 -2
9 -22 21 5 6 4 -5 -7 -1 0 3 1 -10 -5 4 1 0 -3 1 4 -4 -2 0 -1 -1 -1 -0 -0 0 -1 1 0 1 -1 1 -1 1 -1 -2 -1 0 -1 -1 -0 -1 -3 -2 1 -0
-26 2 2 21 2 -2 1 -6 -3 -1 6 5 -2 -17 0 3 4 0 1 0 -0 -3 1 -1 1 -0 -0 -2 -0 0 -1 1 1 -0 -0 -0 0 -1 -0 -1 0 -1 -1 -1 -1 -1 -1 -1 -1
-24 9 7 14 4 -5 2 -5 -4 0 -3 3 -2 -9 -5 6 1 0 1 -1 -1 3 0 0 -0 -1 -1 0 -1 -0 1 1 -1 -1 -0 2 -2 1 -2 1 -1 -0 0 0 -1 -1 -1 -0 0
25 12 7 3 -2 -3 -4 -2 -9 6 -0 -5 -5 -5 -4 -1 2 -3 1 -0 2 1 4 -2 2 -1 -0 -1 -3 -1 0 -2 1 -1 -0 -1 1 -1 1 -2 2 -2 1 -2 -1 1 -2 -2 -1
4 -12 16 -21 6 -8 5 -10 -14 8 2 6 -2 -4 -5 -7 2 6 -3 3 1 2 -1 4 0 -1 1 1 -3 0 1 2 -1 -0 -3 -0 1 -0 1 4 -2 2 -4 -0 -0 2 -2 2 2
-4 6 -20 5 10 9 -4 -4 7 6 2 -3 7 -2 -7 -2 -9 -4 9 1 -1 1 1 -2 3 -2 -1 3 -0 -2 0 2 1 0 -1 -1 0 2 -1 2 2 0 1 1 -2 3 2 -1 1
-9 -43 -40 16 -0 9 -6 8 2 10 -7 -0 1 -1 -4 -3 2 -3 -7 -2 8 2 0 -2 2 1 -4 0 2 -1 -1 2 0 -1 3 -6 0 0 -0 -1 0 1 1 -0 1 1 -1 1 -1
-41 -38 2 -16 24 -10 -0 8 1 2 -2 1 0 1 -1 -1 -7 7 -5 -4 -1 3 -1 -4 1 2 1 -3 0 1 -1 2 2 1 0 3 -2 -0 -1 -1 0 -3 2 0 -1 -1 -1 -1 -1
23 12 -6 12 19 1 -8 2 3 3 -10 -1 -0 -0 -3 -1 3 2 -2 -8 -0 -1 2 -1 -5 1 4 -2 -2 -2 5 -2 1 1 -1 -1 -0 -3 1 -2 -0 -1 -0 1 -1 -0 2 -1 -1
10 12 -37 40 3 1 26 -5 14 -2 -4 3 6 -5 3 0 2 -3 2 -8 -16 2 2 -0 -0 -1 -1 3 0 -1 -0 2 -6 -1 -1 0 3 2 0 -0 -2 0 -2 1 1 0 1 -1 1
-22 -13 -16 -1 42 9 37 -13 -7 -0 -3 2 -9 2 -4 -5 2 3 2 -5 -10 -6 -1 6 7 4 -2 -1 -2 -1 -2 -6 3 -1 4 -1 -0 -2 -0 -1 0 -1 -1 0 1 1 -1 -1 -1
-12 -9 15 32 32 -37 48 -48 15 -16 6 -28 -7 -0 5 -0 -1 -4 -10 4 -4 -6 -0 -0 5 6 1 -2 -1 -0 -1 -0 -1 4 -1 2 -0 -1 1 -1 0 0 -1 1 -1 -0 -0 1 2
-87 58 19 25 32 20 24 -7 -49 27 -24 -25 7 -2 2 13 1 2 -9 -5 1 -6 -1 -0 -1 4 -1 1 -0 -1 -1 -1 1 -1 1 2 4 0 0 -1 -3 1 -0 -1 -1 1 1 2 -0
42 -9 4 19 24 31 -17 3 -36 -34 -25 30 4 -1 2 -1 5 6 0 4 -2 -11 -5 2 -2 2 3 3 -1 -2 1 -0 -0 2 2 4 4 1 1 2 1 1 1 -0 -1 0 -2 -1 -0
28 20 -3 7 21 -33 -42 37 -162 10 7 21 -9 6 -3 13 -2 5 -6 -8 5 -9 -3 -3 2 4 0 3 -4 2 3 -3 4 2 3 1 4 3 3 3 1 1 1 1 -1 1 2 -3 1
5 19 -1 -11 -26 -83 66 -32 -260 105 1 -2 0 12 1 -2 1 -6 0 2 -1 5 -17 -5 -6 1 2 5 1 0 3 -4 0 4 2 6 3 5 -1 1 1 -0 1 2 -2 -3 -1 5 5
12 10 11 23 9 2 -12 -28 -37 11 -23 -3 -8 24 -5 -5 -3 4 6 -3 2 -4 8 -5 -6 -10 -2 15 6 2 4 -2 -3 8 1 3 3 3 -2 1 -1 -2 1 2 0 1 7 -1 4
-3 25 27 16 5 -4 -15 -18 -146 18 1 34 12 -11 -1 1 -2 -4 -5 -1 3 4 3 8 -1 -12 -15 9 7 2 6 4 -2 2 6 2 2 4 1 3 0 -2 1 1 3 0 -2 14 -1
2 -9 1 17 6 -2 1 -111 -25 92 14 19 12 16 11 8 9 4 -0 -1 -2 -0 -7 7 0 1 -10 -22 4 8 3 9 6 -2 5 1 5 7 1 -1 -1 -1 3 -1 2 1 1 -3 -2
5 3 17 18 7 -11 2 -117 43 40 -1 -11 -26 -0 7 3 5 -2 -1 0 -6 -3 0 -1 1 1 -1 -6 3 3 8 -2 17 7 11 4 10 -0 5 6 -7 3 5 1 -0 4 -1 1 -2
Height
5855 5855 5856 5858 5862 5864 5867 5869 5868 5866 5871 5871 5878 5879 5880 5879 5876 5875 5879 5879 5881 5882 5883 5882 5883 5884 5883 5883 5883 5883 5883 5883 5881 5880 5878 5877 5877 5877 5877 5877 5877 5877 5877 5877 5877 5876 5876 5875 5874
5851 5852 5853 5854 5858 5861 5864 5865 5864 5862 5866 5872 5877 5876 5874 5873 5874 5875 5879 5878 5878 5881 5881 5881 5882 5882 5882 5882 5882 5882 5882 5882 5881 5879 5878 5877 5877 5877 5876 5876 5876 5877 5877 5876 5877 5876 5876 5875 5874
5847 5848 5850 5851 5855 5859 5860 5859 5857 5858 5862 5868 5873 5873 5864 5868 5871 5875 5878 5878 5877 5879 5879 5880 5881 5881 5881 5881 5880 5881 5881 5881 5880 5879 5878 5877 5877 5876 5876 5876 5876 5876 5876 5876 5876 5876 5876 5875 5875
5841 5844 5846 5849 5853 5857 5854 5852 5855 5859 5861 5864 5866 5867 5863 5869 5870 5873 5875 5875 5875 5877 5877 5878 5879 5880 5879 5879 5879 5879 5880 5880 5879 5878 5877 5877 5877 5876 5876 5876 5875 5876 5876 5876 5876 5876 5876 5875 5874
5837 5839 5842 5846 5850 5851 5850 5852 5851 5856 5859 5862 5861 5861 5862 5864 5865 5867 5872 5872 5873 5874 5875 5876 5876 5877 5876 5877 5877 5877 5878 5878 5879 5878 5877 5877 5876 5876 5876 5875 5875 5876 5875 5875 5876 5876 5876 5875 5875
5831 5833 5837 5843 5846 5849 5848 5847 5850 5853 5854 5857 5855 5855 5859 5862 5861 5863 5870 5871 5872 5871 5872 5873 5873 5874 5874 5874 5875 5875 5876 5877 5878 5878 5876 5876 5876 5876 5875 5875 5875 5875 5875 5875 5876 5876 5876 5875 5875
5826 5827 5833 5836 5841 5841 5843 5842 5846 5850 5854 5852 5854 5849 5855 5859 5859 5858 5864 5868 5869 5867 5869 5870 5870 5870 5870 5871 5872 5872 5874 5875 5876 5877 5876 5875 5875 5875 5875 5875 5874 5874 5874 5875 5875 5876 5875 5875 5875
5820 5820 5825 5830 5835 5837 5835 5842 5845 5846 5849 5849 5848 5844 5851 5854 5855 5856 5860 5863 5865 5864 5865 5866 5866 5867 5867 5868 5869 5870 5871 5873 5874 5875 5875 5874 5875 5875 5875 5875 5874 5874 5874 5874 5874 5874 5874 5874 5874
5810 5812 5818 5826 5830 5832 5829 5831 5838 5840 5844 5842 5842 5837 5848 5851 5853 5854 5856 5859 5860 5860 5861 5863 5863 5863 5864 5865 5866 5867 5869 5871 5872 5873 5873 5873 5873 5874 5874 5874 5874 5874 5873 5873 5872 5872 5873 5873 5873
5801 5804 5816 5823 5827 5824 5822 5826 5832 5836 5839 5838 5836 5836 5843 5847 5849 5850 5852 5855 5855 5855 5857 5858 5860 5860 5861 5862 5863 5864 5867 5868 5870 5871 5871 5872 5872 5872 5872 5873 5873 5872 5872 5872 5872 5872 5871 5871 5871
5794 5797 5810 5815 5817 5817 5818 5818 5827 5831 5833 5835 5832 5832 5838 5842 5843 5846 5847 5850 5851 5850 5853 5854 5855 5857 5859 5859 5860 5861 5863 5866 5867 5868 5870 5870 5871 5870 5870 5871 5871 5870 5870 5870 5871 5870 5870 5870 5870
5779 5791 5798 5807 5807 5809 5813 5813 5818 5823 5828 5831 5829 5828 5829 5838 5837 5841 5843 5845 5848 5847 5848 5850 5852 5853 5855 5855 5857 5858 5860 5862 5864 5865 5867 5868 5869 5869 5869 5868 5869 5869 5868 5868 5868 5868 5869 5869 5869
5772 5784 5788 5796 5798 5800 5805 5807 5813 5817 5821 5825 5823 5826 5828 5832 5832 5834 5837 5839 5842 5844 5844 5847 5848 5848 5851 5851 5853 5855 5857 5859 5861 5862 5864 5866 5866 5867 5866 5866 5867 5866 5866 5866 5866 5866 5867 5867 5868
5767 5771 5776 5783 5790 5791 5795 5798 5804 5812 5815 5817 5816 5819 5824 5827 5828 5827 5830 5835 5838 5839 5840 5842 5844 5845 5847 5847 5849 5851 5853 5855 5858 5859 5860 5862 5864 5864 5865 5864 5865 5864 5865 5864 5864 5864 5865 5864 5864
5751 5752 5761 5768 5781 5779 5785 5788 5792 5804 5809 5813 5812 5814 5817 5822 5823 5826 5824 5827 5832 5834 5834 5837 5839 5840 5842 5845 5844 5847 5849 5851 5854 5855 5856 5858 5859 5861 5861 5862 5861 5861 5861 5862 5862 5862 5862 5863 5864
5730 5737 5742 5762 5769 5773 5773 5773 5789 5795 5801 5804 5809 5810 5811 5813 5817 5820 5822 5821 5824 5829 5829 5831 5834 5835 5837 5841 5841 5844 5846 5848 5851 5852 5852 5853 5854 5856 5856 5857 5858 5858 5859 5859 5859 5860 5859 5859 5860
5713 5722 5734 5753 5755 5762 5761 5763 5779 5784 5791 5795 5801 5805 5807 5809 5810 5810 5816 5815 5818 5824 5825 5825 5829 5831 5831 5834 5839 5839 5841 5844 5846 5847 5850 5848 5849 5851 5852 5852 5853 5853 5854 5854 5855 5854 5854 5855 5854
5702 5713 5724 5732 5748 5747 5751 5753 5765 5772 5781 5787 5792 5797 5801 5803 5805 5810 5808 5810 5806 5816 5821 5820 5823 5825 5827 5826 5831 5835 5836 5838 5840 5842 5845 5844 5844 5846 5846 5847 5848 5848 5849 5849 5849 5850 5849 5849 5850
5701 5707 5714 5724 5740 5739 5741 5748 5754 5761 5768 5779 5782 5787 5791 5795 5801 5804 5804 5804 5802 5806 5817 5816 5816 5819 5820 5821 5823 5828 5830 5832 5833 5835 5837 5839 5840 5840 5842 5841 5844 5843 5844 5845 5844 5845 5845 5845 5845
5682 5692 5701 5714 5723 5729 5734 5736 5744 5749 5756 5766 5774 5777 5782 5786 5790 5796 5799 5798 5798 5801 5807 5813 5812 5812 5814 5816 5818 5818 5822 5824 5826 5827 5831 5831 5834 5834 5835 5836 5837 5838 5838 5840 5840 5841 5840 5841 5840
5662 5673 5692 5700 5710 5716 5721 5721 5730 5737 5743 5752 5761 5767 5770 5774 5779 5785 5789 5793 5793 5793 5798 5806 5807 5807 5807 5809 5809 5811 5813 5816 5819 5823 5824 5826 5824 5825 5828 5830 5832 5832 5832 5834 5835 5836 5836 5835 5835
5648 5667 5680 5687 5693 5695 5710 5703 5715 5727 5733 5740 5747 5756 5762 5764 5766 5769 5777 5784 5785 5787 5793 5796 5799 5800 5801 5800 5802 5804 5806 5810 5813 5813 5816 5817 5820 5818 5821 5822 5825 5827 5827 5829 5829 5830 5830 5830 5829
5639 5658 5662 5671 5676 5684 5688 5693 5702 5716 5719 5726 5736 5742 5753 5760 5759 5760 5764 5773 5777 5779 5782 5786 5788 5791 5793 5794 5795 5796 5798 5803 5804 5805 5806 5809 5813 5814 5815 5816 5818 5822 5822 5823 5823 5823 5823 5824 5824
5631 5630 5640 5648 5656 5655 5672 5685 5685 5700 5709 5719 5726 5731 5741 5748 5753 5755 5759 5762 5765 5768 5770 5775 5779 5783 5785 5786 5787 5788 5790 5792 5794 5798 5800 5802 5804 5806 5808 5809 5811 5814 5815 5815 5816 5816 5816 5816 5817
5602 5610 5619 5625 5630 5637 5660 5665 5667 5688 5700 5704 5714 5722 5730 5737 5742 5743 5748 5753 5755 5756 5759 5763 5768 5770 5776 5778 5780 5781 5782 5782 5785 5788 5792 5793 5795 5798 5801 5802 5804 5805 5807 5807 5808 5807 5807 5807 5807
5588 5598 5600 5605 5614 5630 5639 5635 5655 5680 5687 5693 5703 5710 5715 5722 5730 5732 5737 5740 5744 5746 5749 5752 5758 5761 5764 5769 5773 5774 5775 5773 5774 5777 5782 5785 5787 5788 5789 5793 5795 5796 5799 5800 5800 5801 5800 5797 5797
5577 5580 5597 5599 5605 5612 5620 5629 5650 5665 5674 5684 5690 5698 5703 5708 5716 5724 5727 5730 5735 5737 5739 5741 5747 5753 5754 5755 5763 5766 5765 5765 5763 5767 5771 5775 5778 5780 5781 5783 5785 5788 5791 5791 5793 5794 5791 5790 5791
5564 5576 5583 5582 5587 5593 5602 5619 5639 5654 5663 5672 5678 5682 5692 5697 5704 5709 5714 5718 5723 5726 5729 5730 5733 5739 5744 5743 5748 5754 5756 5755 5753 5753 5760 5766 5769 5770 5772 5774 5776 5779 5783 5784 5785 5786 5785 5785 5784
5556 5559 5565 5574 5579 5586 5596 5604 5641 5642 5651 5655 5666 5676 5682 5688 5693 5699 5703 5706 5711 5714 5715 5721 5726 5728 5733 5735 5736 5742 5746 5743 5741 5742 5748 5754 5759 5760 5761 5764 5766 5770 5774 5775 5777 5778 5778 5778 5777
5545 5547 5554 5559 5571 5578 5587 5607 5624 5627 5629 5639 5647 5657 5669 5676 5682 5688 5692 5695 5697 5699 5704 5708 5716 5719 5722 5726 5723 5728 5732 5732 5732 5733 5738 5743 5746 5749 5750 5752 5756 5760 5763 5765 5767 5769 5770 5770 5770